Year,Month,Day,Hour,Minute,Value (Times are PST for temperature in C)
2012,07,21,00,02,15.30
2012,07,21,00,03,15.30
2012,07,21,00,04,15.30
2012,07,21,00,05,15.30
2012,07,21,00,06,15.30
2012,07,21,00,07,15.30
2012,07,21,00,08,15.20
2012,07,21,00,10,15.20
2012,07,21,00,11,15.20
2012,07,21,00,12,15.20
2012,07,21,00,13,15.20
2012,07,21,00,14,15.20
2012,07,21,00,15,15.20
2012,07,21,00,16,15.20
2012,07,21,00,17,15.20
2012,07,21,00,19,15.20
2012,07,21,00,20,15.20
2012,07,21,00,21,15.20
2012,07,21,00,22,15.20
2012,07,21,00,23,15.10
2012,07,21,00,24,15.10
2012,07,21,00,25,15.10
2012,07,21,00,26,15.10
2012,07,21,00,27,15.10
2012,07,21,00,29,15.10
2012,07,21,00,30,15.10
2012,07,21,00,31,15.10
2012,07,21,00,32,15.10
2012,07,21,00,33,15.10
2012,07,21,00,34,15.10
2012,07,21,00,35,15.10
2012,07,21,00,36,15.10
2012,07,21,00,37,15.10
2012,07,21,00,38,15.10
2012,07,21,00,39,15.10
2012,07,21,00,40,15.10
2012,07,21,00,41,15.10
2012,07,21,00,42,15.10
2012,07,21,00,43,15.10
2012,07,21,00,44,15.10
2012,07,21,00,45,15.10
2012,07,21,00,46,15.10
2012,07,21,00,47,15.10
2012,07,21,00,48,15.00
2012,07,21,00,49,15.00
2012,07,21,00,50,15.00
2012,07,21,00,51,15.00
2012,07,21,00,52,15.00
2012,07,21,00,53,15.00
2012,07,21,00,54,14.90
2012,07,21,00,55,14.90
2012,07,21,00,57,14.90
2012,07,21,00,58,14.90
2012,07,21,00,59,14.90
2012,07,21,01,00,14.90
2012,07,21,01,01,14.90
2012,07,21,01,02,14.80
2012,07,21,01,03,14.80
2012,07,21,01,04,14.80
2012,07,21,01,05,14.80
2012,07,21,01,06,14.80
2012,07,21,01,07,14.80
2012,07,21,01,08,14.80
2012,07,21,01,09,14.80
2012,07,21,01,11,14.80
2012,07,21,01,12,14.80
2012,07,21,01,13,14.80
2012,07,21,01,14,14.80
2012,07,21,01,15,14.80
2012,07,21,01,16,14.80
2012,07,21,01,17,14.70
2012,07,21,01,18,14.70
2012,07,21,01,19,14.70
2012,07,21,01,20,14.70
2012,07,21,01,21,14.60
2012,07,21,01,22,14.60
2012,07,21,01,23,14.50
2012,07,21,01,24,14.40
2012,07,21,01,25,14.30
2012,07,21,01,27,14.30
2012,07,21,01,28,14.20
2012,07,21,01,29,14.10
2012,07,21,01,30,14.10
2012,07,21,01,31,14.10
2012,07,21,01,32,14.10
2012,07,21,01,33,14.10
2012,07,21,01,34,14.00
2012,07,21,01,36,14.00
2012,07,21,01,37,14.00
2012,07,21,01,38,13.90
2012,07,21,01,39,13.90
2012,07,21,01,40,13.90
2012,07,21,01,42,13.90
2012,07,21,01,43,13.80
2012,07,21,01,44,13.80
2012,07,21,01,45,13.80
2012,07,21,01,46,13.80
2012,07,21,01,47,13.80
2012,07,21,01,48,13.80
2012,07,21,01,49,13.70
2012,07,21,01,51,13.70
2012,07,21,01,52,13.70
2012,07,21,01,53,13.70
2012,07,21,01,55,13.70
2012,07,21,01,56,13.80
2012,07,21,01,57,13.80
2012,07,21,01,58,13.80
2012,07,21,02,00,13.80
2012,07,21,02,01,13.80
2012,07,21,02,02,13.80
2012,07,21,02,03,13.80
2012,07,21,02,05,13.80
2012,07,21,02,06,13.80
2012,07,21,02,07,13.80
2012,07,21,02,08,13.80
2012,07,21,02,09,13.80
2012,07,21,02,10,13.80
2012,07,21,02,11,13.80
2012,07,21,02,12,13.80
2012,07,21,02,13,13.80
2012,07,21,02,15,13.80
2012,07,21,02,16,13.80
2012,07,21,02,17,13.80
2012,07,21,02,18,13.80
2012,07,21,02,19,13.80
2012,07,21,02,20,13.80
2012,07,21,02,21,13.80
2012,07,21,02,22,13.80
2012,07,21,02,23,13.80
2012,07,21,02,25,13.80
2012,07,21,02,26,13.80
2012,07,21,02,27,13.70
2012,07,21,02,28,13.70
2012,07,21,02,30,13.70
2012,07,21,02,31,13.70
2012,07,21,02,32,13.70
2012,07,21,02,33,13.70
2012,07,21,02,35,13.70
2012,07,21,02,36,13.70
2012,07,21,02,37,13.70
2012,07,21,02,38,13.70
2012,07,21,02,39,13.70
2012,07,21,02,40,13.70
2012,07,21,02,41,13.70
2012,07,21,02,42,13.70
2012,07,21,02,43,13.70
2012,07,21,02,45,13.70
2012,07,21,02,46,13.70
2012,07,21,02,47,13.70
2012,07,21,02,48,13.70
2012,07,21,02,50,13.70
2012,07,21,02,51,13.70
2012,07,21,02,52,13.70
2012,07,21,02,53,13.70
2012,07,21,02,55,13.70
2012,07,21,02,56,13.70
2012,07,21,02,57,13.70
2012,07,21,02,59,13.70
2012,07,21,03,00,13.70
2012,07,21,03,01,13.70
2012,07,21,03,02,13.70
2012,07,21,03,03,13.70
2012,07,21,03,04,13.60
2012,07,21,03,05,13.70
2012,07,21,03,06,13.70
2012,07,21,03,07,13.60
2012,07,21,03,09,13.70
2012,07,21,03,10,13.70
2012,07,21,03,11,13.70
2012,07,21,03,12,13.70
2012,07,21,03,14,13.70
2012,07,21,03,15,13.70
2012,07,21,03,16,13.70
2012,07,21,03,17,13.70
2012,07,21,03,18,13.70
2012,07,21,03,19,13.70
2012,07,21,03,20,13.70
2012,07,21,03,21,13.70
2012,07,21,03,22,13.70
2012,07,21,03,23,13.70
2012,07,21,03,24,13.70
2012,07,21,03,25,13.80
2012,07,21,03,26,13.80
2012,07,21,03,27,13.80
2012,07,21,03,28,13.80
2012,07,21,03,29,13.80
2012,07,21,03,30,13.80
2012,07,21,03,31,13.80
2012,07,21,03,32,13.80
2012,07,21,03,33,13.80
2012,07,21,03,34,13.80
2012,07,21,03,36,13.80
2012,07,21,03,37,13.80
2012,07,21,03,38,13.80
2012,07,21,03,39,13.80
2012,07,21,03,40,13.80
2012,07,21,03,41,13.80
2012,07,21,03,42,13.80
2012,07,21,03,43,13.80
2012,07,21,03,44,13.80
2012,07,21,03,46,13.70
2012,07,21,03,47,13.70
2012,07,21,03,48,13.60
2012,07,21,03,49,13.60
2012,07,21,03,50,13.60
2012,07,21,03,51,13.60
2012,07,21,03,52,13.60
2012,07,21,03,53,13.60
2012,07,21,03,54,13.60
2012,07,21,03,55,13.60
2012,07,21,03,56,13.60
2012,07,21,03,57,13.60
2012,07,21,03,58,13.60
2012,07,21,03,59,13.60
2012,07,21,04,00,13.70
2012,07,21,04,01,13.70
2012,07,21,04,02,13.70
2012,07,21,04,03,13.70
2012,07,21,04,05,13.70
2012,07,21,04,06,13.70
2012,07,21,04,07,13.70
2012,07,21,04,08,13.70
2012,07,21,04,10,13.70
2012,07,21,04,11,13.80
2012,07,21,04,12,13.80
2012,07,21,04,13,13.80
2012,07,21,04,15,13.80
2012,07,21,04,16,13.80
2012,07,21,04,17,13.80
2012,07,21,04,18,13.80
2012,07,21,04,20,13.80
2012,07,21,04,21,13.80
2012,07,21,04,22,13.80
2012,07,21,04,23,13.80
2012,07,21,04,24,13.80
2012,07,21,04,25,13.80
2012,07,21,04,26,13.80
2012,07,21,04,27,13.80
2012,07,21,04,28,13.80
2012,07,21,04,29,13.80
2012,07,21,04,30,13.80
2012,07,21,04,31,13.80
2012,07,21,04,32,13.80
2012,07,21,04,33,13.80
2012,07,21,04,34,13.80
2012,07,21,04,35,13.80
2012,07,21,04,36,13.80
2012,07,21,04,37,13.80
2012,07,21,04,38,13.80
2012,07,21,04,39,13.80
2012,07,21,04,40,13.80
2012,07,21,04,41,13.80
2012,07,21,04,42,13.80
2012,07,21,04,43,13.80
2012,07,21,04,44,13.80
2012,07,21,04,45,13.80
2012,07,21,04,46,13.80
2012,07,21,04,47,13.80
2012,07,21,04,48,13.80
2012,07,21,04,49,13.80
2012,07,21,04,50,13.80
2012,07,21,04,51,13.80
2012,07,21,04,53,13.70
2012,07,21,04,54,13.60
2012,07,21,04,55,13.60
2012,07,21,04,56,13.50
2012,07,21,04,57,13.40
2012,07,21,04,58,13.40
2012,07,21,04,59,13.30
2012,07,21,05,00,13.30
2012,07,21,05,01,13.20
2012,07,21,05,02,13.20
2012,07,21,05,03,13.20
2012,07,21,05,04,13.20
2012,07,21,05,05,13.20
2012,07,21,05,06,13.20
2012,07,21,05,07,13.10
2012,07,21,05,08,13.10
2012,07,21,05,09,13.10
2012,07,21,05,10,13.10
2012,07,21,05,11,13.10
2012,07,21,05,12,13.10
2012,07,21,05,13,13.10
2012,07,21,05,14,13.10
2012,07,21,05,15,13.10
2012,07,21,05,16,13.10
2012,07,21,05,17,13.10
2012,07,21,05,18,13.20
2012,07,21,05,19,13.20
2012,07,21,05,20,13.20
2012,07,21,05,21,13.20
2012,07,21,05,22,13.20
2012,07,21,05,23,13.20
2012,07,21,05,24,13.20
2012,07,21,05,25,13.20
2012,07,21,05,27,13.20
2012,07,21,05,28,13.20
2012,07,21,05,29,13.20
2012,07,21,05,30,13.20
2012,07,21,05,32,13.20
2012,07,21,05,33,13.20
2012,07,21,05,34,13.20
2012,07,21,05,35,13.20
2012,07,21,05,36,13.20
2012,07,21,05,37,13.20
2012,07,21,05,38,13.20
2012,07,21,05,39,13.20
2012,07,21,05,40,13.20
2012,07,21,05,42,13.20
2012,07,21,05,43,13.20
2012,07,21,05,44,13.20
2012,07,21,05,45,13.20
2012,07,21,05,47,13.20
2012,07,21,05,48,13.20
2012,07,21,05,49,13.20
2012,07,21,05,50,13.20
2012,07,21,05,51,13.20
2012,07,21,05,52,13.20
2012,07,21,05,53,13.20
2012,07,21,05,54,13.30
2012,07,21,05,56,13.30
2012,07,21,05,57,13.30
2012,07,21,05,58,13.30
2012,07,21,05,59,13.30
2012,07,21,06,00,13.40
2012,07,21,06,01,13.40
2012,07,21,06,02,13.40
2012,07,21,06,03,13.40
2012,07,21,06,04,13.40
2012,07,21,06,05,13.30
2012,07,21,06,07,13.40
2012,07,21,06,08,13.30
2012,07,21,06,09,13.30
2012,07,21,06,11,13.30
2012,07,21,06,12,13.40
2012,07,21,06,13,13.40
2012,07,21,06,14,13.40
2012,07,21,06,16,13.50
2012,07,21,06,17,13.60
2012,07,21,06,18,13.60
2012,07,21,06,19,13.70
2012,07,21,06,20,13.70
2012,07,21,06,21,13.70
2012,07,21,06,22,13.80
2012,07,21,06,23,13.80
2012,07,21,06,24,13.80
2012,07,21,06,25,13.90
2012,07,21,06,26,13.90
2012,07,21,06,27,13.90
2012,07,21,06,29,14.00
2012,07,21,06,30,14.00
2012,07,21,06,31,14.10
2012,07,21,06,32,14.10
2012,07,21,06,33,14.10
2012,07,21,06,34,14.10
2012,07,21,06,35,14.10
2012,07,21,06,36,14.10
2012,07,21,06,38,14.10
2012,07,21,06,39,14.10
2012,07,21,06,40,14.10
2012,07,21,06,41,14.10
2012,07,21,06,42,14.10
2012,07,21,06,44,14.10
2012,07,21,06,45,14.20
2012,07,21,06,46,14.20
2012,07,21,06,47,14.20
2012,07,21,06,48,14.20
2012,07,21,06,49,14.20
2012,07,21,06,50,14.20
2012,07,21,06,51,14.20
2012,07,21,06,53,14.20
2012,07,21,06,54,14.20
2012,07,21,06,55,14.30
2012,07,21,06,56,14.30
2012,07,21,06,57,14.30
2012,07,21,06,58,14.30
2012,07,21,06,59,14.30
2012,07,21,07,00,14.30
2012,07,21,07,01,14.30
2012,07,21,07,03,14.30
2012,07,21,07,04,14.30
2012,07,21,07,05,14.30
2012,07,21,07,06,14.30
2012,07,21,07,07,14.30
2012,07,21,07,08,14.30
2012,07,21,07,09,14.30
2012,07,21,07,10,14.30
2012,07,21,07,11,14.30
2012,07,21,07,12,14.40
2012,07,21,07,14,14.30
2012,07,21,07,15,14.40
2012,07,21,07,16,14.40
2012,07,21,07,17,14.40
2012,07,21,07,19,14.40
2012,07,21,07,20,14.40
2012,07,21,07,21,14.40
2012,07,21,07,22,14.40
2012,07,21,07,23,14.40
2012,07,21,07,24,14.40
2012,07,21,07,25,14.40
2012,07,21,07,26,14.40
2012,07,21,07,27,14.40
2012,07,21,07,28,14.40
2012,07,21,07,30,14.40
2012,07,21,07,31,14.40
2012,07,21,07,32,14.40
2012,07,21,07,33,14.40
2012,07,21,07,34,14.40
2012,07,21,07,35,14.40
2012,07,21,07,36,14.40
2012,07,21,07,37,14.40
2012,07,21,07,38,14.40
2012,07,21,07,39,14.40
2012,07,21,07,40,14.50
2012,07,21,07,41,14.50
2012,07,21,07,42,14.60
2012,07,21,07,43,14.60
2012,07,21,07,44,14.60
2012,07,21,07,45,14.60
2012,07,21,07,46,14.70
2012,07,21,07,47,14.70
2012,07,21,07,48,14.70
2012,07,21,07,50,14.70
2012,07,21,07,51,14.80
2012,07,21,07,52,14.80
2012,07,21,07,53,14.80
2012,07,21,07,54,14.80
2012,07,21,07,55,14.80
2012,07,21,07,56,14.80
2012,07,21,07,57,14.80
2012,07,21,07,59,14.90
2012,07,21,08,00,14.90
2012,07,21,08,01,14.90
2012,07,21,08,02,14.90
2012,07,21,08,03,14.90
2012,07,21,08,04,14.90
2012,07,21,08,05,14.90
2012,07,21,08,06,14.90
2012,07,21,08,07,14.90
2012,07,21,08,09,14.90
2012,07,21,08,10,15.00
2012,07,21,08,11,15.00
2012,07,21,08,12,15.10
2012,07,21,08,14,15.10
2012,07,21,08,15,15.10
2012,07,21,08,16,15.20
2012,07,21,08,17,15.20
2012,07,21,08,19,15.30
2012,07,21,08,20,15.30
2012,07,21,08,21,15.30
2012,07,21,08,23,15.40
2012,07,21,08,24,15.40
2012,07,21,08,25,15.40
2012,07,21,08,26,15.40
2012,07,21,08,28,15.50
2012,07,21,08,29,15.60
2012,07,21,08,30,15.60
2012,07,21,08,32,15.60
2012,07,21,08,33,15.70
2012,07,21,08,34,15.70
2012,07,21,08,35,15.70
2012,07,21,08,37,15.70
2012,07,21,08,38,15.70
2012,07,21,08,39,15.80
2012,07,21,08,40,15.80
2012,07,21,08,41,15.80
2012,07,21,08,43,15.80
2012,07,21,08,44,15.90
2012,07,21,08,45,15.90
2012,07,21,08,46,15.90
2012,07,21,08,48,16.00
2012,07,21,08,49,16.10
2012,07,21,08,50,16.10
2012,07,21,08,51,16.20
2012,07,21,08,53,16.20
2012,07,21,08,54,16.30
2012,07,21,08,55,16.30
2012,07,21,08,57,16.30
2012,07,21,08,58,16.30
2012,07,21,08,59,16.30
2012,07,21,09,00,16.40
2012,07,21,09,01,16.40
2012,07,21,09,02,16.40
2012,07,21,09,03,16.40
2012,07,21,09,04,16.50
2012,07,21,09,06,16.60
2012,07,21,09,07,16.60
2012,07,21,09,08,16.70
2012,07,21,09,09,16.70
2012,07,21,09,10,16.70
2012,07,21,09,12,16.70
2012,07,21,09,13,16.80
2012,07,21,09,14,16.80
2012,07,21,09,15,16.90
2012,07,21,09,17,16.90
2012,07,21,09,18,17.00
2012,07,21,09,19,17.00
2012,07,21,09,20,17.10
2012,07,21,09,22,17.10
2012,07,21,09,23,17.20
2012,07,21,09,24,17.20
2012,07,21,09,25,17.30
2012,07,21,09,26,17.30
2012,07,21,09,27,17.30
2012,07,21,09,28,17.40
2012,07,21,09,29,17.40
2012,07,21,09,31,17.40
2012,07,21,09,32,17.40
2012,07,21,09,33,17.50
2012,07,21,09,34,17.50
2012,07,21,09,35,17.40
2012,07,21,09,37,17.40
2012,07,21,09,38,17.40
2012,07,21,09,39,17.40
2012,07,21,09,40,17.30
2012,07,21,09,42,17.30
2012,07,21,09,43,17.40
2012,07,21,09,44,17.40
2012,07,21,09,45,17.40
2012,07,21,09,46,17.40
2012,07,21,09,47,17.50
2012,07,21,09,48,17.50
2012,07,21,09,49,17.50
2012,07,21,09,50,17.60
2012,07,21,09,51,17.60
2012,07,21,09,52,17.60
2012,07,21,09,53,17.60
2012,07,21,09,54,17.60
2012,07,21,09,55,17.60
2012,07,21,09,57,17.70
2012,07,21,09,58,17.70
2012,07,21,09,59,17.70
2012,07,21,10,00,17.70
2012,07,21,10,01,17.80
2012,07,21,10,02,17.70
2012,07,21,10,03,17.70
2012,07,21,10,04,17.70
2012,07,21,10,05,17.60
2012,07,21,10,07,17.60
2012,07,21,10,08,17.70
2012,07,21,10,09,17.70
2012,07,21,10,10,17.70
2012,07,21,10,11,17.70
2012,07,21,10,13,17.70
2012,07,21,10,14,17.70
2012,07,21,10,15,17.70
2012,07,21,10,17,17.80
2012,07,21,10,18,17.80
2012,07,21,10,19,17.80
2012,07,21,10,20,17.80
2012,07,21,10,21,17.80
2012,07,21,10,22,17.80
2012,07,21,10,23,17.80
2012,07,21,10,24,17.80
2012,07,21,10,25,17.80
2012,07,21,10,26,17.80
2012,07,21,10,27,17.80
2012,07,21,10,28,17.70
2012,07,21,10,29,17.70
2012,07,21,10,31,17.80
2012,07,21,10,32,17.80
2012,07,21,10,33,17.80
2012,07,21,10,34,17.90
2012,07,21,10,36,17.90
2012,07,21,10,37,17.90
2012,07,21,10,38,17.80
2012,07,21,10,39,17.80
2012,07,21,10,41,17.80
2012,07,21,10,42,17.80
2012,07,21,10,43,17.80
2012,07,21,10,44,17.80
2012,07,21,10,45,17.80
2012,07,21,10,46,17.80
2012,07,21,10,47,17.80
2012,07,21,10,48,17.80
2012,07,21,10,50,17.80
2012,07,21,10,51,17.90
2012,07,21,10,52,17.90
2012,07,21,10,54,17.90
2012,07,21,10,55,18.00
2012,07,21,10,56,18.10
2012,07,21,10,57,18.10
2012,07,21,10,58,18.20
2012,07,21,11,00,18.20
2012,07,21,11,01,18.30
2012,07,21,11,02,18.30
2012,07,21,11,03,18.30
2012,07,21,11,05,18.40
2012,07,21,11,06,18.40
2012,07,21,11,07,18.50
2012,07,21,11,08,18.50
2012,07,21,11,09,18.60
2012,07,21,11,11,18.60
2012,07,21,11,12,18.60
2012,07,21,11,13,18.60
2012,07,21,11,14,18.60
2012,07,21,11,15,18.60
2012,07,21,11,16,18.60
2012,07,21,11,17,18.60
2012,07,21,11,18,18.70
2012,07,21,11,19,18.80
2012,07,21,11,21,18.90
2012,07,21,11,22,19.00
2012,07,21,11,23,19.10
2012,07,21,11,24,19.10
2012,07,21,11,25,19.20
2012,07,21,11,26,19.20
2012,07,21,11,27,19.30
2012,07,21,11,28,19.30
2012,07,21,11,29,19.30
2012,07,21,11,30,19.20
2012,07,21,11,31,19.20
2012,07,21,11,32,19.30
2012,07,21,11,33,19.30
2012,07,21,11,34,19.30
2012,07,21,11,36,19.20
2012,07,21,11,37,19.30
2012,07,21,11,38,19.30
2012,07,21,11,39,19.40
2012,07,21,11,40,19.40
2012,07,21,11,42,19.50
2012,07,21,11,43,19.40
2012,07,21,11,44,19.50
2012,07,21,11,45,19.60
2012,07,21,11,46,19.60
2012,07,21,11,47,19.60
2012,07,21,11,48,19.70
2012,07,21,11,49,19.70
2012,07,21,11,50,19.70
2012,07,21,11,51,19.80
2012,07,21,11,52,19.80
2012,07,21,11,53,19.80
2012,07,21,11,55,19.90
2012,07,21,11,56,19.90
2012,07,21,11,57,20.00
2012,07,21,11,58,20.00
2012,07,21,12,00,20.10
2012,07,21,12,01,20.10
2012,07,21,12,02,20.10
2012,07,21,12,03,20.00
2012,07,21,12,05,19.90
2012,07,21,12,06,19.80
2012,07,21,12,07,19.80
2012,07,21,12,08,19.80
2012,07,21,12,10,19.80
2012,07,21,12,11,19.80
2012,07,21,12,12,19.70
2012,07,21,12,14,19.70
2012,07,21,12,15,19.60
2012,07,21,12,16,19.60
2012,07,21,12,17,19.60
2012,07,21,12,19,19.60
2012,07,21,12,20,19.60
2012,07,21,12,21,19.60
2012,07,21,12,22,19.60
2012,07,21,12,24,19.60
2012,07,21,12,25,19.60
2012,07,21,12,26,19.70
2012,07,21,12,27,19.70
2012,07,21,12,29,19.70
2012,07,21,12,30,19.80
2012,07,21,12,31,19.80
2012,07,21,12,32,19.80
2012,07,21,12,33,19.90
2012,07,21,12,34,20.00
2012,07,21,12,35,20.10
2012,07,21,12,37,20.10
2012,07,21,12,38,20.10
2012,07,21,12,39,20.10
2012,07,21,12,40,20.10
2012,07,21,12,42,20.10
2012,07,21,12,43,20.20
2012,07,21,12,44,20.20
2012,07,21,12,45,20.20
2012,07,21,12,47,20.10
2012,07,21,12,48,20.20
2012,07,21,12,49,20.30
2012,07,21,12,50,20.30
2012,07,21,12,51,20.30
2012,07,21,12,53,20.30
2012,07,21,12,54,20.30
2012,07,21,12,55,20.40
2012,07,21,12,56,20.60
2012,07,21,12,57,20.60
2012,07,21,12,59,20.70
2012,07,21,13,00,20.80
2012,07,21,13,01,21.00
2012,07,21,13,02,21.10
2012,07,21,13,04,21.20
2012,07,21,13,05,21.20
2012,07,21,13,06,21.10
2012,07,21,13,07,20.90
2012,07,21,13,08,20.90
2012,07,21,13,09,20.80
2012,07,21,13,10,20.80
2012,07,21,13,11,20.90
2012,07,21,13,12,20.90
2012,07,21,13,14,21.00
2012,07,21,13,15,21.20
2012,07,21,13,16,21.30
2012,07,21,13,17,21.30
2012,07,21,13,18,21.30
2012,07,21,13,20,21.40
2012,07,21,13,21,21.40
2012,07,21,13,22,21.40
2012,07,21,13,23,21.30
2012,07,21,13,24,21.30
2012,07,21,13,25,21.30
2012,07,21,13,26,21.30
2012,07,21,13,27,21.20
2012,07,21,13,28,21.20
2012,07,21,13,30,21.20
2012,07,21,13,31,21.30
2012,07,21,13,32,21.30
2012,07,21,13,34,21.40
2012,07,21,13,35,21.30
2012,07,21,13,36,21.30
2012,07,21,13,37,21.30
2012,07,21,13,38,21.30
2012,07,21,13,40,21.30
2012,07,21,13,41,21.40
2012,07,21,13,42,21.40
2012,07,21,13,43,21.50
2012,07,21,13,44,21.50
2012,07,21,13,45,21.50
2012,07,21,13,46,21.50
2012,07,21,13,47,21.40
2012,07,21,13,49,21.40
2012,07,21,13,50,21.20
2012,07,21,13,51,21.20
2012,07,21,13,52,21.10
2012,07,21,13,53,21.10
2012,07,21,13,54,21.00
2012,07,21,13,55,20.90
2012,07,21,13,56,20.90
2012,07,21,13,57,20.90
2012,07,21,13,59,21.00
2012,07,21,14,00,21.10
2012,07,21,14,01,21.10
2012,07,21,14,02,21.20
2012,07,21,14,04,21.20
2012,07,21,14,05,21.30
2012,07,21,14,06,21.30
2012,07,21,14,07,21.40
2012,07,21,14,09,21.40
2012,07,21,14,10,21.50
2012,07,21,14,11,21.60
2012,07,21,14,12,21.70
2012,07,21,14,13,21.80
2012,07,21,14,15,21.80
2012,07,21,14,16,22.00
2012,07,21,14,17,21.90
2012,07,21,14,19,21.90
2012,07,21,14,20,21.80
2012,07,21,14,21,21.80
2012,07,21,14,22,21.70
2012,07,21,14,23,21.70
2012,07,21,14,25,21.70
2012,07,21,14,26,21.70
2012,07,21,14,27,21.70
2012,07,21,14,28,21.60
2012,07,21,14,29,21.50
2012,07,21,14,30,21.40
2012,07,21,14,31,21.30
2012,07,21,14,32,21.30
2012,07,21,14,33,21.30
2012,07,21,14,35,21.30
2012,07,21,14,36,21.20
2012,07,21,14,37,21.20
2012,07,21,14,38,21.10
2012,07,21,14,40,21.00
2012,07,21,14,41,21.00
2012,07,21,14,42,20.90
2012,07,21,14,43,20.80
2012,07,21,14,44,20.70
2012,07,21,14,46,20.80
2012,07,21,14,47,20.90
2012,07,21,14,48,20.90
2012,07,21,14,49,20.90
2012,07,21,14,50,20.90
2012,07,21,14,51,20.90
2012,07,21,14,52,20.90
2012,07,21,14,53,21.00
2012,07,21,14,55,21.00
2012,07,21,14,56,21.00
2012,07,21,14,57,21.00
2012,07,21,14,58,21.00
2012,07,21,14,59,21.10
2012,07,21,15,00,21.20
2012,07,21,15,01,21.20
2012,07,21,15,02,21.30
2012,07,21,15,04,21.30
2012,07,21,15,05,21.40
2012,07,21,15,06,21.40
2012,07,21,15,07,21.40
2012,07,21,15,08,21.40
2012,07,21,15,10,21.40
2012,07,21,15,11,21.40
2012,07,21,15,12,21.40
2012,07,21,15,13,21.40
2012,07,21,15,14,21.40
2012,07,21,15,16,21.40
2012,07,21,15,17,21.50
2012,07,21,15,18,21.60
2012,07,21,15,19,21.70
2012,07,21,15,21,21.70
2012,07,21,15,22,21.80
2012,07,21,15,23,21.80
2012,07,21,15,25,21.80
2012,07,21,15,26,21.90
2012,07,21,15,27,21.90
2012,07,21,15,29,21.90
2012,07,21,15,30,21.90
2012,07,21,15,31,21.90
2012,07,21,15,32,21.90
2012,07,21,15,33,22.00
2012,07,21,15,35,22.00
2012,07,21,15,36,22.10
2012,07,21,15,37,22.10
2012,07,21,15,38,22.10
2012,07,21,15,40,22.10
2012,07,21,15,41,21.90
2012,07,21,15,42,21.80
2012,07,21,15,43,21.80
2012,07,21,15,44,21.70
2012,07,21,15,46,21.70
2012,07,21,15,47,21.70
2012,07,21,15,48,21.70
2012,07,21,15,49,21.60
2012,07,21,15,50,21.60
2012,07,21,15,52,21.50
2012,07,21,15,53,21.40
2012,07,21,15,54,21.30
2012,07,21,15,55,21.30
2012,07,21,15,57,21.20
2012,07,21,15,58,21.20
2012,07,21,15,59,21.10
2012,07,21,16,00,21.10
2012,07,21,16,02,21.10
2012,07,21,16,03,21.10
2012,07,21,16,04,21.10
2012,07,21,16,06,21.20
2012,07,21,16,07,21.20
2012,07,21,16,08,21.20
2012,07,21,16,09,21.20
2012,07,21,16,10,21.10
2012,07,21,16,12,21.10
2012,07,21,16,13,21.20
2012,07,21,16,14,21.20
2012,07,21,16,15,21.20
2012,07,21,16,16,21.20
2012,07,21,16,17,21.30
2012,07,21,16,18,21.30
2012,07,21,16,19,21.30
2012,07,21,16,20,21.20
2012,07,21,16,21,21.20
2012,07,21,16,23,21.20
2012,07,21,16,24,21.20
2012,07,21,16,25,21.20
2012,07,21,16,26,21.20
2012,07,21,16,27,21.20
2012,07,21,16,29,21.30
2012,07,21,16,30,21.30
2012,07,21,16,31,21.40
2012,07,21,16,32,21.40
2012,07,21,16,34,21.50
2012,07,21,16,35,21.50
2012,07,21,16,36,21.50
2012,07,21,16,37,21.60
2012,07,21,16,38,21.60
2012,07,21,16,39,21.60
2012,07,21,16,40,21.60
2012,07,21,16,41,21.60
2012,07,21,16,42,21.60
2012,07,21,16,43,21.50
2012,07,21,16,44,21.40
2012,07,21,16,45,21.30
2012,07,21,16,46,21.30
2012,07,21,16,47,21.20
2012,07,21,16,48,21.10
2012,07,21,16,50,21.10
2012,07,21,16,51,21.10
2012,07,21,16,52,21.00
2012,07,21,16,53,20.90
2012,07,21,16,55,20.90
2012,07,21,16,56,20.80
2012,07,21,16,57,20.80
2012,07,21,16,58,20.70
2012,07,21,16,59,20.70
2012,07,21,17,00,20.70
2012,07,21,17,01,20.70
2012,07,21,17,02,20.70
2012,07,21,17,03,20.80
2012,07,21,17,05,20.90
2012,07,21,17,06,21.10
2012,07,21,17,07,21.10
2012,07,21,17,08,21.10
2012,07,21,17,09,20.90
2012,07,21,17,10,20.90
2012,07,21,17,11,20.80
2012,07,21,17,12,20.80
2012,07,21,17,13,20.80
2012,07,21,17,14,20.80
2012,07,21,17,16,20.70
2012,07,21,17,17,20.70
2012,07,21,17,18,20.70
2012,07,21,17,19,20.70
2012,07,21,17,20,20.70
2012,07,21,17,21,20.60
2012,07,21,17,22,20.60
2012,07,21,17,23,20.60
2012,07,21,17,24,20.40
2012,07,21,17,25,20.40
2012,07,21,17,27,20.40
2012,07,21,17,28,20.50
2012,07,21,17,29,20.60
2012,07,21,17,30,20.60
2012,07,21,17,31,20.70
2012,07,21,17,32,20.70
2012,07,21,17,33,20.70
2012,07,21,17,34,20.70
2012,07,21,17,35,20.70
2012,07,21,17,37,20.70
2012,07,21,17,38,20.70
2012,07,21,17,39,20.70
2012,07,21,17,40,20.80
2012,07,21,17,42,20.80
2012,07,21,17,43,20.80
2012,07,21,17,44,20.80
2012,07,21,17,45,20.80
2012,07,21,17,47,20.80
2012,07,21,17,48,20.80
2012,07,21,17,49,20.80
2012,07,21,17,50,20.80
2012,07,21,17,51,20.80
2012,07,21,17,52,20.80
2012,07,21,17,53,20.80
2012,07,21,17,54,20.80
2012,07,21,17,55,20.90
2012,07,21,17,56,20.90
2012,07,21,17,57,20.80
2012,07,21,17,58,20.80
2012,07,21,17,59,20.70
2012,07,21,18,00,20.70
2012,07,21,18,01,20.70
2012,07,21,18,02,20.60
2012,07,21,18,03,20.60
2012,07,21,18,04,20.60
2012,07,21,18,05,20.60
2012,07,21,18,06,20.60
2012,07,21,18,07,20.60
2012,07,21,18,08,20.50
2012,07,21,18,09,20.50
2012,07,21,18,10,20.50
2012,07,21,18,11,20.40
2012,07,21,18,12,20.40
2012,07,21,18,13,20.40
2012,07,21,18,14,20.30
2012,07,21,18,15,20.30
2012,07,21,18,17,20.30
2012,07,21,18,18,20.30
2012,07,21,18,19,20.30
2012,07,21,18,20,20.30
2012,07,21,18,21,20.20
2012,07,21,18,23,20.10
2012,07,21,18,24,20.00
2012,07,21,18,25,19.90
2012,07,21,18,26,19.80
2012,07,21,18,27,19.80
2012,07,21,18,28,19.80
2012,07,21,18,29,19.80
2012,07,21,18,30,19.90
2012,07,21,18,31,19.90
2012,07,21,18,32,19.90
2012,07,21,18,34,19.90
2012,07,21,18,35,19.90
2012,07,21,18,36,20.00
2012,07,21,18,37,20.00
2012,07,21,18,39,20.10
2012,07,21,18,40,20.00
2012,07,21,18,41,19.90
2012,07,21,18,42,19.90
2012,07,21,18,43,19.90
2012,07,21,18,45,19.90
2012,07,21,18,46,19.90
2012,07,21,18,47,19.80
2012,07,21,18,48,19.80
2012,07,21,18,50,19.80
2012,07,21,18,51,19.80
2012,07,21,18,52,19.80
2012,07,21,18,53,19.80
2012,07,21,18,54,19.80
2012,07,21,18,55,19.80
2012,07,21,18,56,19.80
2012,07,21,18,57,19.80
2012,07,21,18,58,19.80
2012,07,21,18,59,19.80
2012,07,21,19,00,19.70
2012,07,21,19,01,19.70
2012,07,21,19,02,19.70
2012,07,21,19,03,19.70
2012,07,21,19,04,19.70
2012,07,21,19,06,19.70
2012,07,21,19,07,19.80
2012,07,21,19,08,19.80
2012,07,21,19,09,19.80
2012,07,21,19,10,19.70
2012,07,21,19,11,19.70
2012,07,21,19,12,19.70
2012,07,21,19,13,19.70
2012,07,21,19,14,19.80
2012,07,21,19,16,19.70
2012,07,21,19,17,19.70
2012,07,21,19,18,19.70
2012,07,21,19,19,19.80
2012,07,21,19,20,19.80
2012,07,21,19,21,19.70
2012,07,21,19,22,19.70
2012,07,21,19,23,19.70
2012,07,21,19,24,19.80
2012,07,21,19,25,19.80
2012,07,21,19,26,19.80
2012,07,21,19,27,19.80
2012,07,21,19,28,19.80
2012,07,21,19,29,19.80
2012,07,21,19,30,19.80
2012,07,21,19,31,19.70
2012,07,21,19,32,19.70
2012,07,21,19,33,19.70
2012,07,21,19,34,19.70
2012,07,21,19,35,19.70
2012,07,21,19,36,19.70
2012,07,21,19,37,19.70
2012,07,21,19,38,19.70
2012,07,21,19,39,19.70
2012,07,21,19,40,19.70
2012,07,21,19,41,19.70
2012,07,21,19,42,19.60
2012,07,21,19,43,19.60
2012,07,21,19,44,19.50